GFSNGP_sfc_rhum_069.txt.gz
RH
59 60 72 62 60 49 44 50 64 49 39 31 30 30 27 28 30 30 29 30 31 36 40 48 56 59 59 61 67 69 70 71 72 73 73 71 72 70 68 70 68 69 78 84
85 68 64 67 55 49 43 48 48 42 44 30 27 29 34 32 31 31 30 29 28 30 35 44 54 57 61 62 68 66 68 71 67 68 70 72 72 71 71 73 73 76 89 90
77 71 64 68 61 47 44 42 46 48 38 33 36 34 33 32 32 34 33 32 31 30 29 38 45 57 60 61 63 68 67 66 68 70 71 74 71 69 73 78 81 86 93 96
85 78 78 36 40 42 48 42 39 37 38 51 48 45 35 28 31 34 33 32 31 31 32 36 40 46 55 56 64 68 67 66 68 72 74 73 76 80 84 88 94 98 98 99
90 81 56 40 32 38 45 39 56 68 60 57 53 49 38 37 37 34 31 30 30 29 32 34 41 49 54 60 60 65 68 69 69 72 75 78 82 96 99 99 99 99 98 98
98 85 83 46 47 58 46 54 57 59 55 61 55 69 54 49 52 54 40 31 31 32 34 39 48 65 64 65 68 65 67 68 70 74 80 97 98 98 98 98 98 98 98 97
95 86 69 52 48 66 61 54 54 52 50 58 57 52 52 55 52 50 55 50 66 65 56 58 72 75 74 78 79 80 85 92 96 96 97 97 98 98 97 97 97 98 98 98
82 90 83 50 57 55 44 50 52 49 47 59 56 58 58 52 51 54 61 73 79 81 94 88 86 82 84 90 94 92 94 97 98 98 98 96 96 96 94 95 97 97 97 97
72 66 56 59 63 51 55 59 56 52 48 51 59 53 53 56 55 55 65 75 80 88 96 93 90 86 95 97 93 95 96 97 98 96 96 95 97 97 95 94 95 96 94 95
62 47 43 38 45 67 70 72 67 62 55 55 59 56 60 61 63 61 67 79 79 84 90 95 89 90 93 94 91 94 97 97 96 96 96 93 92 92 94 95 95 93 93 92
54 48 63 44 72 80 73 71 68 63 66 67 69 66 72 72 77 74 74 79 81 89 94 95 94 96 93 92 90 93 92 90 92 90 90 93 94 93 94 94 90 92 93 91
61 84 90 79 72 79 76 75 69 70 69 66 68 72 77 79 76 70 73 74 76 80 83 82 81 82 83 83 84 87 91 91 92 91 91 89 92 94 93 91 90 90 91 90
84 76 79 76 80 75 76 74 70 70 68 71 69 71 74 81 80 81 80 83 86 88 82 83 85 87 83 86 86 88 88 87 88 86 87 89 88 86 90 97 97 97 96 96
72 80 82 82 91 76 74 70 70 68 70 76 82 83 80 81 81 83 85 83 81 84 90 94 92 94 94 91 89 90 91 93 92 92 90 90 92 95 94 94 94 96 96 93
78 79 90 83 77 79 73 71 76 77 77 80 79 83 79 82 84 84 78 75 74 79 84 86 90 95 94 95 93 92 91 93 94 96 96 96 96 96 95 93 92 92 92 93
76 77 92 95 88 88 88 84 83 91 86 79 78 80 79 77 79 80 79 77 81 88 87 93 91 95 96 95 94 94 95 96 95 95 96 95 94 92 90 90 90 91 90 89
84 82 86 92 90 93 94 94 94 92 93 90 90 84 77 79 82 87 91 89 90 94 95 95 96 96 96 96 94 95 95 94 95 93 93 91 91 89 88 86 87 86 89 92
87 89 88 91 91 91 91 91 90 88 86 90 92 94 93 91 93 94 95 93 89 92 94 95 95 95 95 95 93 91 91 92 92 92 89 92 91 88 88 86 85 84 87 88
79 82 87 83 87 90 90 90 91 91 93 94 92 94 94 94 94 95 94 92 91 91 96 94 94 92 93 92 83 84 86 89 89 90 90 90 89 84 87 89 89 89 87 87
86 89 83 85 88 90 93 94 94 94 95 92 91 92 93 94 94 94 91 94 95 93 92 91 86 88 88 87 84 80 86 89 85 90 90 88 90 90 89 86 84 86 87 88
94 94 94 94 95 95 95 95 93 94 95 94 92 94 94 95 94 93 91 88 94 93 91 90 86 80 74 72 72 84 86 88 88 87 87 89 89 86 88 88 88 88 90 90
94 94 95 94 93 94 95 95 94 94 94 94 94 94 93 93 93 93 95 91 87 83 75 76 76 84 76 76 75 84 81 81 83 83 85 85 86 87 88 88 90 91 91 91
95 94 94 94 94 95 93 93 94 94 94 94 94 94 91 89 83 83 86 78 72 78 73 82 85 86 85 87 87 87 86 86 87 87 88 89 88 88 89 89 90 88 87 84
93 92 93 93 90 86 88 92 90 90 93 89 93 89 77 88 91 77 77 85 89 90 92 91 92 92 89 90 90 91 90 90 90 90 90 92 93 91 89 88 86 86 86 86
92 92 90 88 83 86 86 82 76 76 79 80 82 80 82 80 88 89 87 86 90 84 89 94 96 95 92 93 92 92 91 90 90 90 91 92 92 92 90 89 90 88 88 88
90 87 87 87 82 76 75 74 82 81 79 88 89 93 93 89 86 83 86 85 81 82 84 88 93 93 94 92 90 90 88 85 86 89 92 92 91 90 90 88 89 89 91 92
86 80 76 79 77 78 80 81 86 90 89 91 92 91 89 90 90 86 94 91 90 90 92 94 94 96 92 92 91 91 90 91 98 91 93 92 91 91 91 91 92 92 92 92

GFSNGP_sfc_rhum_072.txt.gz
RH
43 36 38 39 38 35 38 36 45 36 33 27 23 22 22 22 22 22 19 17 17 19 20 26 34 40 42 45 51 53 56 59 62 61 59 59 61 61 59 60 57 55 58 59
44 37 35 40 33 31 30 29 33 34 31 22 23 20 20 20 21 23 22 20 18 19 19 22 25 34 40 44 49 51 55 57 55 58 59 60 60 62 62 62 60 59 60 59
52 48 45 55 41 30 26 24 29 34 24 25 26 26 29 32 31 25 23 22 21 19 20 22 23 30 36 39 43 50 53 52 53 55 57 60 58 58 60 62 63 65 61 59
63 67 68 28 26 28 33 26 23 23 29 32 34 36 33 33 38 40 37 33 26 22 21 20 22 25 32 31 40 48 48 48 50 53 55 55 58 59 62 62 65 68 70 69
67 50 35 28 24 24 26 23 32 30 32 33 33 35 30 33 36 41 40 38 35 28 23 24 24 23 29 34 36 41 46 47 47 50 55 55 58 63 67 73 81 88 91 97
68 62 66 34 35 36 33 34 31 35 33 34 34 46 36 34 37 38 35 37 40 39 37 31 28 28 29 32 34 40 46 44 45 49 54 58 62 76 95 93 97 98 98 97
71 72 48 32 25 41 50 53 35 33 33 34 38 36 38 39 35 34 36 38 50 53 52 53 52 47 45 38 40 38 40 47 49 53 58 67 93 91 94 96 97 98 98 98
73 75 77 34 40 49 50 40 37 38 38 42 38 39 38 40 40 38 39 43 53 62 78 80 74 61 50 54 76 75 76 82 86 88 94 93 94 96 97 96 97 98 98 97
47 47 40 43 42 35 49 53 49 52 48 48 48 42 39 42 44 45 46 50 55 72 84 87 86 75 77 92 88 90 92 94 95 96 95 94 96 98 97 95 97 97 96 97
44 34 31 28 34 49 51 55 52 49 50 53 59 52 50 52 52 51 51 57 67 77 86 91 87 88 93 91 90 92 95 96 95 96 96 93 91 92 94 96 96 94 94 94
39 33 31 29 41 55 58 54 54 51 51 53 54 54 56 58 60 62 64 64 68 79 84 86 86 87 85 88 90 92 92 92 93 93 93 94 94 93 95 95 91 91 92 91
43 53 60 54 50 60 62 60 58 58 56 53 55 56 58 64 68 64 70 76 77 84 86 83 83 86 86 85 88 91 93 93 95 93 92 89 90 94 95 96 95 93 90 90
62 64 69 67 59 66 66 61 58 57 56 60 60 64 62 73 79 80 75 77 81 84 83 83 87 91 91 91 90 92 91 89 90 90 89 87 86 88 95 96 95 96 96 95
62 69 67 74 88 71 68 60 59 56 57 63 68 79 87 86 85 91 87 78 78 80 83 86 90 97 97 98 97 96 95 96 91 93 94 95 95 95 94 94 95 96 96 93
67 63 70 81 76 76 72 69 69 70 70 72 68 80 83 86 90 88 76 71 73 79 86 84 85 92 91 90 92 95 94 96 96 96 96 96 96 96 95 94 94 93 92 91
62 58 70 84 83 84 86 83 81 83 80 84 85 89 90 83 81 81 82 79 80 86 85 93 91 95 96 95 95 94 95 96 96 96 96 96 95 94 93 91 90 89 88 89
82 73 75 79 76 81 88 89 85 85 88 91 93 92 90 90 89 90 92 92 92 94 94 94 96 96 96 96 95 93 92 93 94 93 93 94 94 93 93 91 90 87 89 92
72 75 73 76 77 80 86 86 86 87 90 91 91 93 94 93 93 93 94 91 89 91 94 95 95 94 94 95 90 86 84 86 86 87 86 89 88 88 89 89 88 86 87 86
67 71 72 73 75 80 82 82 86 87 91 93 92 93 94 93 92 91 86 87 87 88 94 90 85 83 85 89 80 82 86 86 84 85 87 90 90 87 88 87 86 84 80 80
77 76 74 82 82 81 88 91 92 92 93 93 93 93 92 92 92 90 86 92 91 89 86 83 75 76 75 76 73 71 79 81 76 82 84 82 87 88 84 78 78 80 82 81
91 91 92 91 92 92 92 93 91 92 94 93 91 92 92 92 91 86 82 80 87 73 67 68 65 56 53 53 56 74 77 79 80 78 79 82 82 78 80 80 79 79 80 79
92 92 92 92 89 91 92 92 90 92 91 91 92 91 88 88 86 82 81 72 64 65 58 59 63 74 63 65 62 76 71 72 74 75 78 78 79 80 81 79 80 80 79 79
92 92 91 91 91 92 91 90 92 91 91 91 91 89 83 72 66 72 76 68 61 67 60 73 79 76 73 78 78 78 77 76 78 79 80 81 81 81 80 79 79 78 79 78
91 90 91 91 90 86 88 91 88 87 83 81 84 79 68 77 79 64 63 70 75 78 84 84 85 77 73 80 80 80 79 80 80 80 77 75 80 79 78 79 78 78 78 77
91 91 90 90 85 84 83 73 66 65 67 67 69 66 67 65 81 76 76 74 74 69 76 81 82 76 80 81 80 80 80 81 81 79 78 80 79 79 79 78 79 80 80 79
88 83 83 83 72 62 60 59 65 65 64 77 78 83 82 76 72 71 76 72 72 71 76 81 84 79 80 78 78 78 77 74 77 77 77 78 78 77 79 78 80 80 81 82
77 69 64 64 61 64 65 65 72 75 75 81 82 79 76 79 79 70 75 77 77 77 78 80 80 80 78 78 77 76 75 76 88 78 79 80 79 80 81 82 82 82 82 83

GFSNGP_sfc_rhum_075.txt.gz
RH
44 44 36 36 34 30 31 32 41 37 32 24 21 21 19 19 19 19 18 18 17 16 15 16 26 32 34 37 42 46 47 50 54 57 56 55 57 57 57 59 56 56 58 60
53 33 32 37 33 31 28 28 27 25 26 19 17 18 17 17 20 24 25 22 20 18 17 16 16 25 30 35 40 43 48 51 50 52 54 56 58 60 60 60 57 57 58 58
49 29 36 51 35 30 29 27 27 32 30 20 22 20 23 24 26 32 31 30 30 29 25 21 19 20 22 29 34 42 47 47 48 50 53 57 55 55 58 61 62 63 60 59
55 53 62 27 20 21 24 23 20 19 20 23 24 23 22 21 31 34 34 34 32 31 31 26 24 21 21 20 27 39 43 45 45 48 50 52 55 56 60 61 65 66 66 64
66 49 32 23 19 21 24 21 22 23 24 25 24 27 24 27 29 32 32 32 32 32 40 39 31 26 23 23 23 29 40 44 44 45 47 49 53 58 61 63 66 68 67 68
58 60 55 26 27 27 23 32 26 27 29 29 27 35 27 28 29 30 27 30 34 40 44 50 51 49 42 31 27 29 35 40 40 41 45 49 53 58 62 64 68 80 93 97
66 62 39 24 22 27 43 50 34 31 31 34 38 33 30 26 28 29 29 31 41 49 64 70 68 67 59 45 37 31 31 35 40 43 48 52 55 56 63 82 94 98 98 98
69 85 68 24 26 41 49 41 38 37 37 42 39 35 31 29 29 32 34 36 45 59 72 77 78 78 72 66 69 65 67 66 57 58 65 56 68 84 91 96 97 98 98 98
41 41 33 32 40 41 42 43 42 42 39 42 44 42 40 35 38 42 39 40 47 59 74 77 78 81 89 90 87 87 80 87 89 90 89 88 93 97 98 98 98 98 96 97
75 41 58 33 25 36 41 45 42 42 42 44 49 46 44 45 46 46 44 48 52 62 77 82 80 82 88 89 86 90 95 95 92 93 93 92 92 95 98 98 98 97 97 96
32 28 24 24 36 43 46 44 45 45 47 48 49 48 48 48 51 52 51 56 61 68 79 81 79 85 87 88 87 89 91 94 95 93 93 95 96 97 98 98 96 95 97 94
44 57 54 44 46 51 52 54 53 52 50 48 50 55 52 55 59 57 61 64 67 73 76 86 80 84 90 92 88 90 93 93 96 95 94 92 92 94 96 96 96 95 96 93
55 52 54 50 54 59 62 61 58 53 50 55 55 64 71 75 74 73 65 67 73 76 79 83 89 89 92 98 98 93 93 93 94 92 93 91 89 87 94 96 95 96 96 96
52 54 53 58 72 63 62 62 60 53 54 59 65 72 81 82 80 81 84 86 80 74 81 84 87 93 97 97 96 95 96 95 93 94 94 93 92 92 90 91 94 96 97 96
55 49 61 70 68 67 64 61 64 65 68 70 70 73 74 82 86 86 87 92 89 88 90 91 91 93 90 93 94 95 95 95 96 96 97 97 96 96 95 94 94 95 94 95
56 50 58 71 67 68 68 69 70 73 73 73 74 76 80 77 83 90 90 90 87 90 89 92 92 95 94 92 92 91 94 96 96 96 97 96 96 94 94 94 94 94 94 93
73 72 71 71 72 75 79 77 77 79 81 82 86 86 87 91 90 92 95 94 94 95 94 95 96 94 92 93 94 94 94 92 92 92 93 94 94 94 93 93 94 94 95 96
65 68 68 71 75 76 75 74 74 76 82 84 89 92 93 93 93 94 94 94 92 90 94 95 94 89 91 89 88 89 90 91 88 90 87 87 86 87 91 90 87 87 90 89
62 66 67 69 74 77 77 81 82 82 86 89 90 92 91 90 92 94 92 91 90 86 94 86 77 78 80 79 71 76 80 80 81 84 86 88 92 91 92 93 91 90 86 85
73 72 71 79 82 84 91 92 90 89 91 90 92 91 90 92 92 91 89 90 86 74 72 69 59 61 61 65 66 67 75 77 71 77 80 79 84 85 79 74 76 78 79 78
86 87 89 90 92 93 93 92 90 90 92 92 90 91 91 91 89 84 76 71 74 65 62 64 63 52 48 50 52 70 72 74 76 76 76 78 78 75 76 76 76 78 79 78
91 90 92 92 91 92 92 92 89 91 91 91 91 92 90 86 76 75 78 68 61 63 57 59 60 69 59 63 59 72 67 68 71 73 75 76 77 78 78 77 78 78 78 78
91 90 90 90 89 90 89 90 92 91 91 90 88 79 74 66 62 69 73 64 59 67 60 72 71 72 70 76 76 75 74 74 75 76 77 79 79 78 78 77 77 77 78 76
91 90 90 90 89 86 87 91 87 84 78 74 78 78 65 73 75 59 57 63 66 72 80 78 76 71 70 78 77 78 78 78 77 78 74 71 78 76 76 76 75 76 76 73
90 90 89 89 85 83 82 66 57 56 58 59 61 58 60 60 77 72 72 70 71 66 74 73 71 70 77 77 77 77 77 79 80 77 76 76 76 76 76 76 77 77 76 76
83 78 78 80 68 56 53 51 56 57 57 69 70 76 75 69 66 65 70 66 67 65 72 77 78 75 76 74 74 74 74 71 74 72 73 73 73 73 75 75 76 76 77 78
78 73 59 56 53 55 55 56 64 66 68 74 74 71 68 71 71 64 68 72 73 73 74 75 75 73 74 75 72 71 71 72 83 73 75 75 74 76 77 78 78 78 78 79

GFSNGP_sfc_rhum_078.txt.gz
RH
43 54 56 78 65 54 72 67 65 48 50 42 41 33 28 23 22 23 26 27 29 32 32 28 28 38 39 44 52 55 54 53 56 62 64 64 66 66 66 68 68 67 69 69
45 36 60 43 35 32 38 46 32 41 55 39 38 21 20 23 23 32 34 34 34 33 32 33 32 29 35 42 47 51 54 55 53 57 60 65 67 68 68 69 67 68 70 69
50 34 40 55 39 33 30 29 30 35 29 28 26 23 24 24 30 35 35 35 36 36 38 43 45 43 32 29 40 46 51 53 53 56 59 63 64 65 66 69 70 72 70 69
65 51 70 35 22 22 27 26 24 24 24 28 24 24 25 25 35 36 33 33 36 39 45 49 53 62 61 51 31 35 45 48 51 55 58 59 63 64 67 68 71 72 72 71
67 57 36 25 20 20 25 24 20 21 24 26 24 26 34 28 31 36 34 33 42 50 60 64 69 70 68 62 55 46 32 45 48 52 56 58 62 66 68 70 72 73 72 73
68 66 62 32 18 24 22 34 28 29 34 32 29 48 43 31 29 31 34 44 49 56 63 71 74 72 73 69 73 77 79 68 47 50 53 58 62 67 70 70 72 74 78 90
76 73 45 23 35 29 48 57 37 34 38 42 47 45 39 33 31 34 37 43 49 58 70 74 72 74 78 78 85 81 78 77 79 66 55 56 62 67 74 77 95 99 98 98
72 71 73 28 32 56 65 59 47 45 44 47 44 41 41 37 40 43 42 43 47 59 71 74 72 75 78 84 82 80 83 83 85 86 85 82 76 93 96 98 98 99 98 99
48 50 35 37 54 46 44 51 50 50 44 45 47 46 43 45 48 46 45 50 53 59 68 72 70 76 85 87 85 83 84 87 87 85 88 92 97 99 98 99 98 99 98 98
65 40 43 78 55 46 42 46 44 45 47 48 53 50 49 48 54 54 52 58 61 66 72 75 71 72 82 85 84 82 87 89 88 90 91 92 93 95 98 99 99 99 98 97
81 75 61 73 74 51 49 50 49 47 48 50 52 56 60 59 62 61 60 63 65 74 79 78 75 78 79 85 86 84 86 88 91 92 92 90 93 97 97 98 96 96 96 96
88 65 74 78 59 54 56 56 56 53 51 51 57 64 66 70 70 68 71 70 72 76 78 80 79 82 85 86 84 89 91 92 95 93 93 92 90 91 94 95 96 97 96 94
62 51 54 60 58 57 59 59 56 54 55 59 62 67 70 76 74 74 71 73 78 82 82 86 91 91 91 92 90 92 94 95 94 94 95 95 93 92 92 96 96 96 97 96
51 51 56 65 70 62 59 58 57 56 59 62 65 70 78 79 78 81 85 82 79 82 89 91 94 97 97 91 90 93 94 95 95 96 96 96 96 95 96 91 93 96 96 96
56 50 62 59 56 60 57 56 58 65 66 67 66 70 73 81 85 86 84 84 84 87 92 93 95 96 97 93 92 94 92 95 96 97 96 96 96 96 96 95 95 95 95 94
57 58 57 65 70 70 70 72 76 78 77 77 77 80 79 77 82 87 88 86 85 91 92 94 94 96 96 94 94 93 95 96 95 95 95 95 94 93 93 94 94 95 95 96
73 76 73 73 78 76 81 79 80 84 86 87 91 91 87 86 88 92 93 92 93 95 95 95 96 96 96 96 93 94 94 93 95 94 93 92 91 93 93 94 94 94 95 95
70 72 75 79 86 83 81 80 81 83 89 90 91 92 92 91 94 94 94 94 94 92 94 94 93 90 90 89 89 89 88 86 86 90 90 93 94 93 93 93 92 93 94 94
72 80 80 81 81 80 81 86 88 88 92 95 93 95 94 93 92 93 90 88 88 89 90 81 71 71 75 77 76 79 80 83 84 85 84 85 88 87 90 91 92 92 91 90
78 77 76 82 83 82 91 94 92 94 95 94 94 93 94 95 94 89 83 86 84 79 76 76 68 66 66 69 71 70 78 82 78 82 84 84 89 90 87 85 86 88 89 89
90 91 93 92 94 94 94 94 91 93 94 94 93 94 93 88 86 85 79 80 82 74 72 70 72 64 58 60 63 79 81 82 84 86 86 87 86 86 88 87 88 90 90 90
92 91 94 94 93 94 94 94 92 94 94 94 94 95 94 89 82 80 81 77 70 73 68 71 75 80 73 73 72 81 78 80 83 85 87 87 88 89 89 88 90 90 90 91
92 91 90 92 91 91 90 91 94 93 94 95 93 82 78 73 68 76 80 68 67 75 68 81 82 82 83 85 86 86 83 83 85 87 88 89 89 89 88 90 91 90 90 90
89 88 90 90 91 87 89 92 88 82 82 77 82 82 79 84 82 67 64 72 80 85 84 84 84 82 82 87 87 87 86 92 89 88 86 86 90 92 89 90 90 89 92 91
88 88 87 88 84 84 83 69 58 58 62 62 64 60 64 64 84 77 80 78 77 76 83 83 85 83 85 86 86 87 88 89 89 88 88 89 90 91 90 90 92 91 94 93
83 80 77 77 71 63 55 52 60 60 62 75 76 82 81 77 73 75 78 75 77 74 82 88 86 85 86 86 84 85 86 86 85 86 89 90 89 91 92 91 92 92 93 94
80 76 63 58 55 58 62 65 75 75 78 82 81 78 75 81 79 73 79 82 84 84 86 86 87 84 85 86 83 83 83 86 95 89 90 90 91 92 94 92 92 93 94 94

GFSNGP_sfc_rhum_081.txt.gz
RH
64 49 49 86 66 92 90 91 94 72 82 57 70 76 67 46 38 39 40 40 40 42 48 49 54 59 64 62 66 65 64 69 71 74 74 76 77 78 77 79 77 77 79 79
61 44 38 48 54 66 73 86 82 71 77 60 41 42 51 53 40 41 40 40 41 51 58 64 68 70 68 69 71 72 64 62 62 70 72 73 74 76 78 80 78 78 80 80
70 47 56 73 52 41 50 69 70 72 47 41 41 53 38 46 42 41 40 48 64 71 70 69 72 74 77 73 66 66 69 69 63 66 69 70 71 74 75 77 77 82 81 79
84 68 81 53 35 32 39 35 30 28 40 41 41 37 35 45 46 45 59 69 71 74 74 76 75 76 75 71 75 78 82 81 82 72 71 68 70 72 75 75 78 79 79 79
87 82 57 37 29 30 36 33 32 26 37 33 36 40 41 37 43 60 62 68 73 74 76 77 76 74 74 75 76 78 81 83 81 81 88 75 74 72 72 76 78 80 77 78
87 88 83 49 36 35 33 59 46 47 51 50 46 68 60 50 50 56 57 64 72 73 76 73 71 73 76 78 80 80 79 79 78 82 86 91 85 76 72 74 77 77 80 81
84 91 78 40 47 43 58 81 59 54 56 56 62 59 54 52 52 53 56 60 65 73 77 72 69 75 81 83 86 80 76 76 79 81 84 87 93 95 84 82 84 90 97 99
91 92 87 45 48 66 85 67 58 57 61 65 60 57 57 58 58 59 63 65 65 73 73 70 68 73 80 85 80 78 78 80 81 82 82 83 93 96 98 97 99 100 99 99
69 72 76 81 80 78 73 78 68 62 59 58 62 62 61 64 64 65 67 70 68 72 73 72 70 73 83 84 82 81 82 84 85 81 82 85 92 96 97 97 99 99 99 98
76 90 90 90 73 63 61 56 56 58 57 61 68 69 70 70 69 69 69 70 68 71 76 78 74 76 82 84 83 82 87 87 86 87 83 84 86 90 93 97 98 98 98 98
89 89 90 90 88 65 60 58 55 54 61 65 68 73 72 74 72 70 68 68 70 75 78 79 77 80 83 85 83 84 86 87 88 87 85 85 90 93 93 97 98 97 98 95
99 97 94 97 76 68 65 63 63 62 70 69 70 73 71 74 71 70 72 71 73 78 80 84 81 84 86 87 83 87 89 90 93 91 89 87 82 88 94 94 95 96 96 94
97 83 86 78 67 61 66 62 62 66 67 73 74 73 73 79 77 76 74 76 80 85 82 85 88 91 91 94 94 93 94 92 89 90 91 90 90 88 91 95 96 95 95 98
56 82 86 70 74 64 63 60 64 63 67 71 75 78 84 85 86 86 89 89 86 84 89 91 90 95 96 95 94 97 95 92 93 94 94 94 94 94 93 94 96 96 95 95
65 63 67 66 68 71 69 67 73 75 74 77 75 78 79 88 91 93 93 88 85 88 91 90 91 96 93 93 94 94 92 94 94 95 95 95 95 94 94 95 95 96 95 93
64 66 68 78 78 78 79 77 82 87 84 85 87 86 88 89 91 92 91 91 88 94 93 91 92 96 95 91 91 92 93 93 91 92 93 92 92 92 92 93 93 93 93 95
82 83 78 87 85 88 92 90 88 90 94 94 96 95 92 90 91 93 94 93 92 94 93 93 96 94 93 94 92 93 93 92 90 90 92 92 91 92 92 92 93 94 95 95
85 89 91 89 89 86 87 86 87 88 93 93 93 92 93 92 95 95 95 94 89 86 89 88 89 90 91 94 89 90 92 90 89 92 91 93 94 93 94 94 94 93 94 94
80 83 84 83 84 86 88 91 92 91 94 95 92 94 94 94 94 95 93 89 87 89 89 86 76 76 81 80 79 83 84 86 88 90 89 90 92 92 93 93 94 94 92 92
84 85 86 89 86 87 95 95 93 94 95 94 94 94 95 96 95 90 87 92 90 87 83 84 78 76 75 78 80 79 85 91 86 89 92 92 94 95 94 93 94 96 96 96
96 95 96 94 96 95 95 95 92 94 96 94 92 94 94 93 90 89 87 90 88 84 83 85 84 79 70 72 75 88 90 91 94 94 94 96 95 95 95 98 97 98 96 96
97 96 97 95 94 95 95 95 94 95 95 95 96 96 95 92 86 86 87 88 81 84 82 84 84 87 84 86 85 89 86 90 93 93 95 95 96 98 100 99 99 97 97 96
95 94 95 95 94 96 94 94 95 94 94 94 95 89 84 81 80 88 93 79 77 84 80 88 88 88 92 91 91 91 94 95 95 96 98 98 99 98 98 96 98 100 99 99
95 95 95 94 94 91 92 96 88 84 88 83 88 88 86 93 92 79 79 90 87 92 92 92 95 91 91 93 97 92 92 92 95 97 96 98 98 98 99 100 99 99 100 100
96 97 95 94 91 95 91 79 68 68 72 72 75 70 72 77 94 94 96 95 92 88 95 90 89 92 95 95 94 98 97 98 96 96 98 100 100 100 100 100 100 100 100 100
94 95 92 87 85 86 88 76 83 85 84 94 94 97 96 96 96 96 95 92 94 94 98 96 98 97 98 98 98 99 98 97 97 98 100 100 100 100 100 100 100 100 100 100
96 93 79 76 70 77 85 92 94 97 98 98 98 98 96 96 95 95 94 98 97 98 99 99 97 95 97 98 98 98 99 100 99 98 100 100 100 100 100 100 100 100 100 100

GFSNGP_sfc_rhum_087.txt.gz
RH
64 65 68 69 66 63 88 93 99 84 88 72 82 85 86 90 81 72 73 69 73 81 80 82 84 83 84 86 85 87 89 95 95 94 92 90 90 89 88 88 87 85 86 84
73 57 58 61 51 56 61 78 94 88 95 69 72 84 88 87 88 78 76 77 76 77 76 79 79 79 79 82 84 82 86 88 87 90 90 91 93 92 90 90 90 88 88 88
82 70 67 73 61 43 73 77 76 94 85 72 84 81 82 85 90 85 83 80 80 79 78 79 80 79 83 79 77 79 79 78 79 82 83 86 87 89 91 89 88 89 88 88
96 78 83 48 32 30 46 60 60 60 64 78 83 88 90 89 89 90 86 85 82 78 78 78 78 80 79 77 77 78 78 78 77 80 82 82 85 88 92 94 94 90 89 87
92 82 61 46 34 54 60 59 59 68 62 81 77 77 89 83 84 85 85 84 77 74 73 74 77 77 79 79 78 78 79 79 77 77 78 80 86 89 90 93 95 94 91 89
93 92 86 54 51 57 50 71 71 68 76 76 72 93 92 72 78 81 78 74 76 72 71 73 74 73 77 79 80 82 79 78 74 76 77 82 84 86 87 89 92 94 94 95
94 90 78 55 77 64 74 82 79 80 81 78 88 80 77 76 83 77 72 72 69 70 74 75 75 78 83 81 86 80 78 77 78 80 79 85 86 84 85 89 95 97 96 96
94 95 88 82 80 75 90 86 82 82 81 84 77 74 73 71 72 72 74 72 70 73 77 78 78 80 86 88 80 76 78 82 81 82 80 79 85 89 90 90 92 95 95 95
78 81 87 81 84 82 80 87 83 84 76 76 77 75 72 74 73 71 71 73 72 77 81 83 84 82 86 87 80 83 82 84 80 83 80 80 84 88 89 88 94 94 93 94
100 94 95 90 77 76 73 74 72 75 73 73 82 82 82 78 77 77 73 78 77 79 82 84 80 80 81 87 77 82 85 84 84 84 83 84 85 85 90 94 91 90 92 94
100 99 96 96 94 78 74 74 76 70 72 81 82 87 80 77 74 76 79 80 80 83 85 87 84 86 86 86 84 80 87 84 87 84 88 86 90 91 91 96 94 91 91 93
99 100 100 100 98 95 90 90 81 75 78 77 73 76 75 80 79 78 81 78 79 80 81 87 85 88 89 87 82 82 83 86 91 89 91 89 87 91 83 86 86 86 85 90
99 100 100 100 99 87 78 74 71 73 72 78 77 76 77 81 79 78 77 78 83 84 83 85 89 92 93 94 91 92 93 87 86 89 91 90 92 92 96 86 81 84 87 85
93 94 90 79 82 68 69 68 71 71 73 76 78 78 80 83 82 84 88 90 86 85 88 91 92 95 96 94 94 94 93 94 95 96 96 95 96 96 95 95 96 95 88 89
84 74 73 72 73 75 72 72 76 77 75 77 74 78 81 90 92 91 89 81 82 88 92 92 92 95 95 93 94 95 94 96 97 96 96 96 94 94 94 94 94 94 90 88
79 87 76 79 79 81 82 80 81 84 81 82 82 83 86 87 90 92 92 90 89 95 94 95 94 96 94 95 95 95 95 93 96 96 95 94 94 94 93 94 94 94 94 96
82 79 90 86 83 87 89 89 88 91 92 92 95 93 93 92 93 94 94 93 95 96 96 96 96 95 95 95 97 97 96 95 95 93 95 94 94 95 94 94 94 95 96 95
86 88 89 87 85 83 84 82 85 87 94 93 93 94 94 94 96 96 96 94 93 92 96 96 93 94 94 94 94 94 95 94 93 94 93 94 94 94 94 94 93 93 94 91
75 76 81 81 83 83 85 90 92 92 95 95 94 96 96 96 96 97 94 93 94 93 96 95 89 89 92 90 89 91 91 93 92 93 92 95 96 94 95 95 95 95 94 94
79 76 78 87 86 88 96 96 95 96 96 95 95 95 96 97 97 96 94 98 98 97 94 92 90 90 88 89 94 90 94 95 90 94 95 95 96 98 97 96 96 97 97 97
98 97 98 97 98 97 97 97 95 96 97 96 95 97 97 97 95 95 94 94 96 94 92 87 88 87 84 84 85 94 95 95 95 96 96 97 96 97 98 98 99 100 100 100
98 98 99 97 96 98 97 96 94 95 95 96 97 96 95 95 96 92 97 94 89 92 88 89 85 92 87 92 89 95 93 94 96 96 98 98 98 100 100 100 100 100 100 100
98 98 98 97 98 100 97 97 98 96 97 98 97 97 96 93 91 93 92 85 86 93 86 93 96 94 94 95 96 97 97 98 99 99 100 100 100 100 100 100 100 100 100 100
98 97 98 98 96 94 97 98 93 93 97 95 96 95 87 98 98 90 85 91 93 98 99 97 97 99 98 98 97 98 100 100 100 100 100 100 100 100 100 100 100 100 100 100
97 98 97 98 94 95 91 89 86 75 78 75 78 76 81 85 96 98 98 98 92 94 97 97 100 100 100 100 99 99 99 100 100 100 100 100 100 100 100 100 100 100 100 100
98 97 97 95 95 96 93 91 92 92 90 98 99 100 99 100 98 98 99 100 98 99 98 100 100 100 100 100 100 100 100 100 100 100 100 100 100 100 100 100 100 100 100 100
96 95 94 94 93 94 95 95 96 98 97 98 98 100 100 100 100 99 100 100 100 100 100 100 100 100 100 100 100 100 100 100 100 100 100 100 100 100 100 100 100 100 100 100

GFSNGP_sfc_rhum_093.txt.gz
RH
57 58 62 58 55 53 66 65 77 53 53 50 54 78 81 84 78 88 88 87 88 89 88 88 88 87 87 89 92 94 94 95 95 86 86 84 82 79 76 80 78 76 80 80
53 56 51 52 43 50 54 53 56 53 63 51 71 70 85 83 83 87 91 87 89 85 86 88 87 86 85 86 87 85 87 90 89 89 88 90 91 95 93 92 88 86 82 78
56 59 49 45 48 34 37 38 56 62 56 60 85 92 95 92 89 92 92 93 90 85 81 80 83 79 80 78 80 82 86 82 82 83 84 86 85 86 90 93 93 95 95 94
68 68 62 38 36 36 45 42 62 61 61 71 89 90 92 92 91 92 91 91 96 94 86 81 78 79 74 72 74 84 84 74 77 82 82 80 80 83 87 89 93 94 94 90
69 61 49 40 58 57 56 45 80 83 74 81 83 79 98 95 91 96 94 90 90 92 88 84 82 79 76 73 72 75 76 72 72 75 75 77 81 83 85 87 89 87 87 87
76 67 68 53 61 63 64 40 78 80 78 88 80 90 98 96 97 91 80 77 76 78 81 86 84 76 77 79 77 78 74 73 71 72 76 82 85 85 82 80 83 80 83 85
80 73 60 80 77 62 54 66 78 79 85 89 95 95 97 87 93 85 70 71 70 73 80 80 76 78 83 80 86 77 70 72 74 72 74 80 81 81 81 80 81 84 85 85
76 82 85 82 68 76 87 88 86 84 84 92 96 96 95 96 94 80 71 70 69 74 77 75 74 75 82 86 78 71 71 72 74 74 72 75 82 81 81 83 85 85 87 86
89 96 99 95 94 93 89 95 96 94 92 90 97 97 98 97 97 89 72 70 66 68 74 74 73 77 84 86 79 76 75 73 72 70 71 73 80 84 81 80 84 85 84 85
98 100 99 98 95 98 96 96 93 91 98 97 95 96 96 95 95 92 78 72 67 67 72 76 73 76 81 80 74 76 78 77 72 72 71 71 72 75 80 84 84 81 81 86
100 95 98 87 98 96 93 93 89 82 77 77 76 78 74 74 74 72 71 68 68 70 74 76 72 75 77 76 70 70 73 74 75 75 72 75 82 84 84 92 86 86 90 89
95 99 97 97 98 97 94 93 89 80 80 82 80 77 71 74 72 71 72 68 69 70 73 76 74 77 78 75 71 71 74 74 80 78 76 73 73 82 84 86 86 85 87 89
99 100 98 98 96 91 86 76 70 70 69 75 72 71 72 74 73 76 70 70 74 77 75 76 80 84 87 86 82 86 89 84 78 78 76 77 80 80 85 85 82 83 85 83
83 90 93 86 87 73 69 69 69 66 66 68 71 72 75 78 78 78 81 81 76 75 80 82 85 92 93 90 90 92 90 91 86 87 87 88 88 90 89 91 93 93 86 88
77 75 79 78 72 72 67 65 67 68 67 70 67 71 73 83 86 86 82 75 75 82 86 87 89 92 89 86 89 91 85 87 89 90 90 90 88 88 88 87 88 88 83 80
76 73 73 76 76 74 73 71 73 77 76 77 77 79 79 79 83 85 84 82 81 89 89 93 90 93 91 90 89 87 87 88 87 87 87 86 85 84 83 83 83 85 86 88
78 78 77 82 79 79 81 80 80 84 86 87 89 88 86 86 87 90 92 90 92 94 93 93 96 94 94 94 90 86 85 83 87 81 82 82 82 82 81 81 81 82 87 89
76 77 78 78 78 77 77 77 79 81 87 88 90 92 93 92 93 93 94 90 88 90 92 94 90 91 92 90 85 80 79 78 78 80 77 81 77 75 78 76 74 76 79 80
73 74 74 75 77 78 81 85 87 88 92 92 91 94 93 93 92 92 90 89 89 85 91 88 83 82 83 83 74 74 77 79 76 76 76 81 80 74 79 80 80 82 78 80
79 78 79 84 81 83 94 94 92 95 94 92 93 92 92 92 90 91 89 94 92 87 84 82 77 78 78 79 79 70 79 82 75 84 85 82 86 88 85 82 80 84 86 86
95 94 96 96 98 97 97 95 95 96 96 93 92 94 94 94 92 91 86 78 89 84 80 80 75 68 65 66 66 81 84 86 87 86 86 89 89 87 89 88 88 88 88 87
94 95 97 96 96 98 96 94 93 95 94 94 94 93 91 90 92 90 94 80 74 82 70 71 72 86 74 75 70 83 80 80 83 83 86 87 88 89 90 90 90 90 90 89
94 93 94 95 94 95 94 93 94 92 94 92 90 93 84 80 76 74 76 80 72 82 74 79 87 90 91 88 88 88 86 86 86 87 88 88 88 88 88 89 90 90 90 88
94 92 92 92 91 87 89 92 88 87 89 87 88 90 77 83 86 70 71 87 93 91 90 92 94 92 86 86 89 92 92 93 92 91 88 95 90 90 88 90 88 89 90 91
91 92 91 93 88 83 83 82 76 75 77 75 77 76 76 70 83 82 84 81 85 80 84 98 100 100 91 90 88 88 90 91 92 92 91 90 90 91 91 89 90 87 88 91
89 83 83 88 85 82 80 80 81 81 79 87 81 88 89 87 85 85 90 93 87 92 84 90 92 93 91 90 93 94 92 86 89 88 93 90 91 90 93 91 91 87 87 89
89 90 85 85 78 79 79 83 87 88 89 92 89 89 85 92 93 90 98 93 93 94 94 95 95 96 91 93 92 92 93 92 97 92 93 93 93 93 94 94 93 92 93 93

GFSNGP_sfc_rhum_096.txt.gz
RH
41 38 36 35 33 35 39 38 50 36 36 36 59 69 67 81 76 78 79 82 94 92 90 87 88 88 88 91 91 92 93 94 92 82 77 78 73 68 74 80 79 72 74 75
47 35 30 32 26 26 30 33 35 36 38 43 57 67 88 89 85 88 93 94 91 97 90 89 88 85 86 89 91 87 89 91 90 89 88 89 90 92 92 90 88 84 81 77
47 36 29 36 35 28 30 32 36 42 41 38 68 79 93 94 94 95 96 97 100 100 99 90 84 81 89 88 88 88 86 82 84 85 88 90 87 88 92 95 93 93 93 93
47 40 37 38 28 33 34 43 44 45 48 62 79 89 93 94 94 96 93 94 100 100 99 96 88 83 78 77 81 88 85 88 83 84 86 87 85 88 92 92 92 90 90 89
50 38 35 46 50 50 47 46 54 67 58 81 76 75 95 96 93 95 98 96 83 91 100 99 87 77 73 76 74 74 78 77 72 85 91 88 87 88 87 87 85 86 85 87
53 45 51 63 48 43 44 47 66 71 67 82 79 94 95 87 96 94 90 71 66 64 70 84 90 84 80 78 77 80 77 75 70 72 77 80 83 82 80 77 77 76 81 83
66 59 52 71 49 42 52 85 75 76 83 85 91 95 96 88 93 98 63 63 60 58 61 68 70 73 78 81 88 80 69 67 71 72 78 76 76 76 73 75 76 80 80 81
66 67 66 92 51 71 97 91 86 88 89 91 92 98 98 97 95 91 59 57 56 60 63 62 66 69 77 77 70 66 71 72 71 75 73 71 75 73 71 74 77 78 80 81
89 95 98 95 97 95 94 95 98 98 97 94 95 99 100 98 96 95 76 57 52 57 62 63 64 65 75 78 69 67 62 64 64 66 68 69 74 73 74 74 79 78 79 82
100 98 90 96 90 94 91 96 94 94 96 92 93 96 95 91 88 78 61 54 50 54 58 63 64 68 71 69 65 66 68 63 62 66 66 66 67 71 75 78 80 79 82 85
100 97 82 82 88 87 86 83 80 73 73 71 66 66 60 59 58 56 54 53 53 58 60 61 60 64 64 65 59 62 66 66 65 65 69 73 78 80 80 91 87 86 88 88
91 99 96 99 97 94 91 87 73 66 65 62 58 61 57 59 57 55 57 55 55 58 62 64 63 68 68 63 61 62 64 66 71 69 67 65 68 76 82 84 83 83 85 87
98 100 100 100 98 87 81 61 55 56 55 59 57 55 57 61 60 64 57 57 60 64 63 65 73 78 80 80 77 80 84 76 71 71 68 71 74 75 81 85 82 82 81 82
85 86 82 73 72 59 56 54 55 51 53 56 59 61 65 68 68 69 74 72 65 65 71 74 80 88 86 88 87 86 89 83 83 83 83 84 85 86 85 86 89 90 83 82
68 64 63 61 58 58 54 52 54 54 55 58 56 61 65 75 78 77 71 67 69 74 78 80 83 88 84 82 85 88 84 84 86 87 87 85 86 86 85 85 85 84 81 76
64 61 61 63 61 60 58 58 60 65 65 66 68 71 72 72 75 77 77 76 72 80 82 87 85 90 86 84 83 82 83 82 81 84 84 83 82 80 79 79 78 80 81 82
70 72 70 68 66 67 70 70 70 76 79 81 83 80 80 82 84 86 85 81 84 84 83 84 88 88 87 87 82 78 78 77 77 76 77 76 77 76 74 75 75 74 80 82
63 66 66 64 66 66 68 68 69 72 80 80 83 87 88 88 88 87 87 82 79 82 82 83 82 80 82 82 76 70 70 69 69 72 70 74 69 67 69 66 64 66 69 72
57 61 63 65 64 65 68 74 78 81 86 86 87 90 88 87 86 84 80 78 76 75 82 77 72 69 71 77 61 60 66 70 65 65 66 68 72 64 70 72 72 73 69 71
66 66 67 72 71 74 86 87 86 88 88 87 87 86 84 83 83 82 78 85 82 76 73 72 61 62 62 65 63 55 66 71 62 72 76 70 77 80 78 72 70 75 79 78
88 87 88 89 91 90 88 87 87 89 89 86 82 82 81 81 82 84 69 61 76 74 69 65 61 51 46 50 48 69 73 76 77 75 76 79 78 75 77 78 78 78 79 78
87 88 89 88 87 90 88 86 86 88 86 81 83 82 82 79 80 76 83 70 58 75 57 56 56 75 62 63 57 73 67 68 71 72 75 76 78 78 79 78 78 79 79 79
86 85 86 88 86 87 85 85 87 85 86 84 85 81 72 66 61 63 64 63 55 71 56 68 75 76 75 76 77 76 75 74 75 76 77 79 78 78 77 77 78 78 79 77
84 82 84 83 81 75 78 82 76 76 81 79 80 82 68 71 76 56 58 74 77 76 79 80 82 79 74 77 77 78 77 78 78 79 75 84 79 78 76 78 76 76 77 78
82 82 81 81 72 64 72 68 63 63 65 60 62 62 62 55 75 67 72 72 66 71 73 90 81 84 77 78 77 77 77 77 78 77 77 77 77 78 77 76 77 76 76 76
77 65 63 72 67 63 60 60 64 64 66 76 73 80 80 73 69 68 72 77 67 75 70 78 79 78 78 75 77 78 76 71 76 74 79 74 74 75 76 74 76 76 76 76
72 73 64 63 59 58 58 60 67 67 70 82 81 82 73 77 77 73 83 76 76 77 78 79 79 80 76 78 75 73 74 74 79 75 76 77 76 77 77 78 77 77 77 79